�������l�o���
Date,Time,MP-1(��Sv/h),MP-2(��Sv/h),MP-3(��Sv/h),MP-4(��Sv/h),MP-5(��Sv/h),MP-6(��Sv/h),MP-7(��Sv/h),MP-8(��Sv/h),����,����(m/s),���J
2017/06/17,00:00,0.964,1.538,1.023,1.841,1.248,0.520,0.957,0.887,�k��,5.0,��
2017/06/17,00:10,0.966,1.536,1.023,1.841,1.249,0.521,0.957,0.889,�k��,5.3,��
2017/06/17,00:20,0.964,1.538,1.023,1.844,1.249,0.521,0.955,0.888,�k�k��,5.2,��
2017/06/17,00:30,0.965,1.539,1.024,1.839,1.249,0.521,0.956,0.887,�k�k��,5.1,��
2017/06/17,00:40,0.964,1.538,1.023,1.840,1.251,0.520,0.957,0.888,�k�k��,4.4,��
2017/06/17,00:50,0.966,1.540,1.024,1.840,1.253,0.520,0.957,0.888,�k�k��,4.3,��
2017/06/17,01:00,0.964,1.536,1.025,1.840,1.250,0.520,0.957,0.887,�k�k��,4.4,��
2017/06/17,01:10,0.967,1.539,1.023,1.842,1.251,0.520,0.957,0.888,�k�k��,4.4,��
2017/06/17,01:20,0.964,1.537,1.024,1.842,1.250,0.523,0.956,0.888,�k�k��,4.1,��
2017/06/17,01:30,0.965,1.539,1.024,1.840,1.249,0.519,0.956,0.887,�k��,4.0,��
2017/06/17,01:40,0.963,1.541,1.024,1.842,1.250,0.519,0.957,0.887,�k��,3.7,��
2017/06/17,01:50,0.965,1.540,1.022,1.844,1.250,0.520,0.958,0.891,�k��,2.9,��
2017/06/17,02:00,0.967,1.538,1.025,1.840,1.250,0.521,0.956,0.888,�k��,2.6,��
2017/06/17,02:10,0.964,1.538,1.024,1.842,1.251,0.521,0.958,0.889,�k��,3.1,��
2017/06/17,02:20,0.967,1.541,1.022,1.841,1.251,0.520,0.956,0.888,�k��,3.0,��
2017/06/17,02:30,0.965,1.542,1.024,1.843,1.248,0.518,0.955,0.888,�k��,2.6,��
2017/06/17,02:40,0.965,1.539,1.023,1.840,1.252,0.520,0.956,0.889,�k��,2.3,��
2017/06/17,02:50,0.966,1.534,1.022,1.842,1.252,0.520,0.958,0.889,�k��,1.2,��
2017/06/17,03:00,0.966,1.539,1.023,1.842,1.252,0.519,0.959,0.890,�k��,1.7,��
2017/06/17,03:10,0.965,1.537,1.024,1.841,1.253,0.520,0.956,0.888,�k��,1.9,��
2017/06/17,03:20,0.966,1.540,1.026,1.843,1.253,0.519,0.959,0.890,�k�k��,1.4,��
2017/06/17,03:30,0.963,1.541,1.021,1.844,1.254,0.520,0.956,0.888,�k��,1.1,��
2017/06/17,03:40,0.967,1.539,1.024,1.842,1.251,0.521,0.955,0.888,���k��,1.9,��
2017/06/17,03:50,0.964,1.539,1.023,1.844,1.252,0.520,0.957,0.889,�k��,2.3,��
2017/06/17,04:00,0.965,1.536,1.022,1.842,1.251,0.522,0.957,0.889,�k��,2.6,��
2017/06/17,04:10,0.963,1.536,1.023,1.841,1.250,0.520,0.957,0.889,���k��,3.1,��
2017/06/17,04:20,0.966,1.539,1.022,1.843,1.253,0.520,0.956,0.888,�k��,4.7,��
2017/06/17,04:30,0.965,1.539,1.024,1.842,1.252,0.520,0.958,0.888,�k��,4.3,��
2017/06/17,04:40,0.965,1.535,1.022,1.843,1.250,0.520,0.955,0.890,�k��,4.6,��
2017/06/17,04:50,0.965,1.538,1.022,1.845,1.251,0.520,0.958,0.890,�k�k��,4.3,��
2017/06/17,05:00,0.967,1.540,1.023,1.844,1.251,0.520,0.956,0.887,�k�k��,3.7,��
2017/06/17,05:10,0.967,1.535,1.025,1.842,1.253,0.519,0.956,0.890,�k�k��,3.3,��
2017/06/17,05:20,0.964,1.536,1.023,1.841,1.252,0.520,0.956,0.888,�k�k��,3.7,��
2017/06/17,05:30,0.966,1.539,1.021,1.844,1.255,0.519,0.955,0.889,�k�k��,3.7,��
2017/06/17,05:40,0.967,1.541,1.026,1.842,1.252,0.521,0.958,0.889,�k�k��,3.8,��
2017/06/17,05:50,0.967,1.542,1.024,1.844,1.251,0.521,0.957,0.889,�k�k��,3.4,��
2017/06/17,06:00,0.966,1.541,1.024,1.843,1.254,0.522,0.958,0.890,�k�k��,3.2,��
2017/06/17,06:10,0.969,1.543,1.024,1.844,1.253,0.521,0.960,0.889,�k,2.5,��
2017/06/17,06:20,0.967,1.542,1.026,1.844,1.255,0.521,0.957,0.890,�k,2.6,��
2017/06/17,06:30,0.969,1.542,1.025,1.846,1.254,0.522,0.960,0.890,�k�k��,2.6,��
2017/06/17,06:40,0.969,1.541,1.027,1.844,1.253,0.522,0.961,0.890,�k�k��,2.2,��
2017/06/17,06:50,0.966,1.543,1.028,1.846,1.255,0.521,0.961,0.890,�k�k��,2.2,��
2017/06/17,07:00,0.966,1.545,1.027,1.845,1.252,0.520,0.960,0.890,�k�k��,2.0,��
2017/06/17,07:10,0.966,1.540,1.026,1.847,1.257,0.521,0.961,0.893,�k�k��,1.7,��
2017/06/17,07:20,0.970,1.543,1.029,1.850,1.256,0.518,0.960,0.892,�k�k��,2.2,��
2017/06/17,07:30,0.971,1.546,1.028,1.848,1.257,0.520,0.959,0.893,�k,3.0,��
2017/06/17,07:40,0.971,1.544,1.028,1.850,1.259,0.521,0.960,0.892,�k�k��,3.4,��
2017/06/17,07:50,0.970,1.546,1.028,1.848,1.259,0.520,0.958,0.890,�k�k��,2.9,��
2017/06/17,08:00,0.970,1.547,1.030,1.851,1.258,0.520,0.960,0.891,�k�k��,2.8,��
2017/06/17,08:10,0.969,1.545,1.031,1.848,1.260,0.521,0.959,0.888,���k��,3.2,��
2017/06/17,08:20,0.969,1.550,1.030,1.853,1.260,0.521,0.960,0.889,���k��,3.1,��
2017/06/17,08:30,0.971,1.547,1.026,1.853,1.260,0.520,0.960,0.889,�k��,3.4,��
2017/06/17,08:40,0.972,1.548,1.028,1.849,1.262,0.521,0.959,0.889,�k�k��,3.5,��
2017/06/17,08:50,0.974,1.552,1.027,1.853,1.263,0.521,0.961,0.890,�k��,3.7,��
2017/06/17,09:00,0.973,1.553,1.026,1.853,1.260,0.521,0.962,0.891,�k�k��,4.0,��
2017/06/17,09:10,0.975,1.554,1.028,1.856,1.263,0.522,0.961,0.891,�k��,3.9,��
2017/06/17,09:20,0.974,1.553,1.027,1.854,1.261,0.522,0.960,0.891,�k��,3.6,��
2017/06/17,09:30,0.973,1.554,1.028,1.853,1.264,0.521,0.961,0.892,�k��,3.9,��
2017/06/17,09:40,0.975,1.554,1.028,1.856,1.264,0.523,0.960,0.890,�k��,4.1,��
2017/06/17,09:50,0.976,1.553,1.030,1.857,1.268,0.522,0.962,0.890,�k��,4.0,��
2017/06/17,10:00,0.978,1.559,1.031,1.858,1.268,0.523,0.964,0.890,�k��,3.2,��
2017/06/17,10:10,0.980,1.559,1.031,1.857,1.267,0.524,0.965,0.891,�k�k��,3.0,��
2017/06/17,10:20,0.977,1.559,1.030,1.858,1.266,0.523,0.964,0.890,�k��,3.3,��
2017/06/17,10:30,0.979,1.560,1.031,1.858,1.267,0.522,0.963,0.890,�k��,3.5,��
2017/06/17,10:40,0.981,1.562,1.030,1.861,1.270,0.524,0.964,0.892,�k��,3.7,��
2017/06/17,10:50,0.980,1.557,1.034,1.859,1.269,0.524,0.964,0.889,���k��,3.0,��
2017/06/17,11:00,0.981,1.564,1.034,1.860,1.271,0.524,0.963,0.892,�k��,3.7,��
2017/06/17,11:10,0.981,1.564,1.031,1.858,1.273,0.524,0.964,0.891,�k��,2.6,��
2017/06/17,11:20,0.981,1.560,1.035,1.859,1.273,0.524,0.964,0.891,���k��,2.6,��
2017/06/17,11:30,0.981,1.567,1.033,1.858,1.274,0.526,0.965,0.891,�k�k��,3.4,��
2017/06/17,11:40,0.981,1.564,1.035,1.857,1.273,0.524,0.965,0.894,�k��,3.7,��
2017/06/17,11:50,0.985,1.565,1.035,1.859,1.275,0.523,0.965,0.891,�k��,3.0,��
2017/06/17,12:00,0.983,1.565,1.035,1.861,1.273,0.525,0.966,0.893,�k��,3.9,��
2017/06/17,12:10,0.984,1.566,1.036,1.858,1.276,0.523,0.964,0.892,�k��,4.1,��
2017/06/17,12:20,0.985,1.568,1.037,1.862,1.279,0.527,0.966,0.892,�k��,3.6,��
2017/06/17,12:30,0.986,1.570,1.035,1.862,1.279,0.526,0.965,0.893,�k��,3.4,��
2017/06/17,12:40,0.986,1.569,1.038,1.862,1.277,0.525,0.967,0.891,�k��,3.6,��
2017/06/17,12:50,0.984,1.570,1.038,1.863,1.280,0.528,0.966,0.892,�k��,3.2,��
2017/06/17,13:00,0.988,1.570,1.038,1.866,1.280,0.526,0.967,0.894,�k��,3.5,��
2017/06/17,13:10,0.988,1.571,1.040,1.863,1.283,0.525,0.968,0.894,���k��,2.8,��
2017/06/17,13:20,0.987,1.570,1.036,1.864,1.282,0.525,0.966,0.892,���k��,3.3,��
2017/06/17,13:30,0.989,1.572,1.038,1.861,1.281,0.526,0.965,0.893,���k��,2.8,��
2017/06/17,13:40,0.986,1.570,1.041,1.866,1.284,0.526,0.968,0.894,��,3.4,��
2017/06/17,13:50,0.989,1.573,1.039,1.863,1.285,0.528,0.967,0.895,���쓌,3.0,��
2017/06/17,14:00,0.988,1.572,1.038,1.863,1.282,0.526,0.967,0.894,�쓌,4.1,��
2017/06/17,14:10,0.988,1.575,1.037,1.867,1.286,0.526,0.966,0.893,�쓌,2.9,��
2017/06/17,14:20,0.989,1.576,1.040,1.866,1.283,0.527,0.968,0.893,���쓌,3.4,��
2017/06/17,14:30,0.991,1.574,1.038,1.867,1.286,0.526,0.965,0.894,���쓌,3.2,��
2017/06/17,14:40,0.990,1.572,1.039,1.868,1.285,0.526,0.967,0.893,���쓌,3.1,��
2017/06/17,14:50,0.990,1.576,1.041,1.866,1.286,0.528,0.968,0.894,���쓌,3.3,��
2017/06/17,15:00,0.991,1.574,1.041,1.866,1.285,0.525,0.968,0.893,���쓌,2.6,��
2017/06/17,15:10,0.990,1.577,1.041,1.867,1.287,0.526,0.965,0.894,���쓌,1.5,��
2017/06/17,15:20,0.991,1.574,1.040,1.866,1.287,0.527,0.968,0.893,���쓌,3.3,��
2017/06/17,15:30,0.990,1.577,1.041,1.869,1.287,0.527,0.966,0.892,���쓌,2.6,��
2017/06/17,15:40,0.991,1.577,1.044,1.866,1.287,0.527,0.967,0.893,���쓌,2.6,��
2017/06/17,15:50,0.991,1.576,1.043,1.868,1.290,0.525,0.968,0.894,�쓌,3.2,��
2017/06/17,16:00,0.992,1.579,1.040,1.869,1.288,0.525,0.967,0.894,�쓌,2.2,��
2017/06/17,16:10,0.991,1.581,1.041,1.868,1.288,0.527,0.967,0.893,�쓌,2.6,��
2017/06/17,16:20,0.991,1.577,1.042,1.868,1.287,0.526,0.967,0.893,�쓌,2.3,��
2017/06/17,16:30,0.991,1.579,1.041,1.871,1.288,0.528,0.967,0.892,�쓌,2.0,��
2017/06/17,16:40,0.990,1.578,1.043,1.870,1.289,0.526,0.968,0.894,�쓌,2.3,��
2017/06/17,16:50,0.989,1.579,1.043,1.872,1.287,0.526,0.966,0.893,�쓌,2.6,��
2017/06/17,17:00,0.991,1.578,1.044,1.872,1.286,0.527,0.965,0.893,�쓌,2.8,��
2017/06/17,17:10,0.991,1.581,1.041,1.872,1.285,0.526,0.968,0.892,��쓌,2.5,��
2017/06/17,17:20,0.990,1.583,1.040,1.871,1.288,0.527,0.968,0.893,��쓌,3.2,��
2017/06/17,17:30,0.988,1.587,1.042,1.873,1.287,0.527,0.966,0.894,��쓌,4.3,��
2017/06/17,17:40,0.992,1.583,1.045,1.871,1.287,0.526,0.967,0.893,��쓌,3.4,��
2017/06/17,17:50,0.991,1.587,1.044,1.871,1.287,0.528,0.968,0.895,��쓌,3.5,��
2017/06/17,18:00,0.991,1.586,1.043,1.870,1.288,0.530,0.966,0.894,��,2.3,��
2017/06/17,18:10,0.989,1.584,1.043,1.869,1.286,0.527,0.966,0.895,��쓌,1.9,��
2017/06/17,18:20,0.992,1.587,1.042,1.870,1.290,0.529,0.965,0.896,��쓌,1.7,��
2017/06/17,18:30,0.990,1.584,1.042,1.870,1.289,0.527,0.968,0.895,��쓌,1.5,��
2017/06/17,18:40,0.992,1.586,1.043,1.872,1.288,0.527,0.966,0.896,��쓌,1.4,��
2017/06/17,18:50,0.993,1.585,1.043,1.873,1.288,0.531,0.967,0.896,��쓌,0.8,��
2017/06/17,19:00,0.993,1.581,1.044,1.873,1.289,0.529,0.965,0.895,�쓌,0.6,��
2017/06/17,19:10,0.994,1.582,1.043,1.876,1.291,0.531,0.965,0.894,��,1.4,��
2017/06/17,19:20,0.995,1.584,1.045,1.872,1.292,0.529,0.966,0.897,��쓌,0.6,��
2017/06/17,19:30,0.991,1.583,1.043,1.876,1.289,0.530,0.965,0.896,��,0.9,��
2017/06/17,19:40,0.992,1.582,1.044,1.874,1.291,0.531,0.967,0.895,�쓌,0.6,��
2017/06/17,19:50,0.991,1.581,1.042,1.876,1.288,0.529,0.966,0.895,��,1.2,��
2017/06/17,20:00,0.992,1.583,1.044,1.874,1.291,0.531,0.967,0.897,��쓌,0.9,��
2017/06/17,20:10,0.991,1.582,1.044,1.873,1.290,0.529,0.969,0.897,��쓌,0.6,��
2017/06/17,20:20,0.993,1.583,1.043,1.876,1.290,0.528,0.969,0.895,�쓌,0.6,��
2017/06/17,20:30,0.991,1.582,1.047,1.873,1.288,0.529,0.968,0.896,��쓌,0.6,��
2017/06/17,20:40,0.989,1.581,1.041,1.875,1.287,0.528,0.968,0.895,��쓌,0.9,��
2017/06/17,20:50,0.991,1.580,1.043,1.875,1.289,0.530,0.967,0.897,��,1.1,��
2017/06/17,21:00,0.991,1.580,1.043,1.874,1.292,0.530,0.969,0.896,��쐼,1.4,��
2017/06/17,21:10,0.990,1.583,1.043,1.873,1.290,0.529,0.969,0.895,�쐼,1.4,��
2017/06/17,21:20,0.991,1.582,1.044,1.873,1.288,0.529,0.969,0.896,��,1.2,��
2017/06/17,21:30,0.992,1.579,1.046,1.874,1.289,0.530,0.968,0.894,��쐼,1.1,��
2017/06/17,21:40,0.990,1.579,1.043,1.875,1.291,0.529,0.970,0.896,��,0.8,��
2017/06/17,21:50,0.991,1.580,1.044,1.874,1.287,0.529,0.968,0.897,��,1.2,��
2017/06/17,22:00,0.993,1.580,1.044,1.876,1.290,0.530,0.968,0.895,��쓌,1.2,��
2017/06/17,22:10,0.990,1.576,1.045,1.874,1.288,0.529,0.967,0.895,��쓌,1.5,��
2017/06/17,22:20,0.989,1.580,1.044,1.873,1.289,0.528,0.967,0.897,��쓌,0.9,��
2017/06/17,22:30,0.991,1.581,1.045,1.875,1.287,0.529,0.969,0.896,-,CALM,��
2017/06/17,22:40,0.990,1.579,1.045,1.874,1.292,0.528,0.969,0.894,-,CALM,��
2017/06/17,22:50,0.991,1.581,1.045,1.875,1.289,0.529,0.965,0.894,-,CALM,��
2017/06/17,23:00,0.989,1.578,1.041,1.874,1.289,0.528,0.968,0.895,-,CALM,��
2017/06/17,23:10,0.988,1.581,1.042,1.874,1.290,0.527,0.967,0.894,-,CALM,��
2017/06/17,23:20,0.987,1.580,1.042,1.871,1.289,0.528,0.968,0.896,-,CALM,��
2017/06/17,23:30,0.990,1.580,1.045,1.874,1.287,0.527,0.969,0.895,-,CALM,��
2017/06/17,23:40,0.989,1.579,1.044,1.874,1.290,0.528,0.967,0.895,-,CALM,��
2017/06/17,23:50,0.991,1.580,1.042,1.871,1.290,0.528,0.967,0.894,-,CALM,��
